Location: Casilda
(33.0440°S, 61.1680°W)
Time: 14:11:13
(UTC-03:00)

ISS - Pass Details

Date: 19 October 2018
Orbit: 403 x 408 km, 51.6° (Epoch: 23 October)

Event Time Altitude Azimuth Distance (km) Brightness Sun altitude
Exits shadow 04:29:30 18° 195° (SSW) 1,099 -1.5 -22.3°
Maximum altitude 04:31:24 31° 142° (SE) 738 -2.0 -21.9°
Drops below altitude 10° 04:34:24 10° 76° (ENE) 1,468 -0.4 -21.4°
Sets 04:36:37 0° 66° (ENE) 2,322 0.6 -21.0°
